Location: Caltech
(34.1382°N, 118.1253°W)
Time: 11:57:19
(UTC-08:00)

Cosmos 2237 Rocket - Visible Passes

Search period start: 20 January 2017 00:00
Search period end: 30 January 2017 00:00
Orbit: 835 x 850 km, 71.0° (Epoch: 20 January)

Date Brightness Start Highest point End Pass type
(mag) Time Alt. Az. Time Alt. Az. Time Alt. Az.
20 Jan 4.7 03:38:03 13° SE 03:38:03 13° SE 03:38:44 10° SE visible
20 Jan 4.1 05:19:57 13° SW 05:19:57 13° SW 05:20:56 10° SW visible
20 Jan 3.3 18:15:19 10° SW 18:20:40 45° WNW 18:26:04 10° N visible
21 Jan 3.2 18:00:26 10° SW 18:05:49 47° WNW 18:11:16 10° N visible
22 Jan 3.1 17:45:33 10° SW 17:50:58 50° WNW 17:56:27 10° N visible
